Home   Weather   Chania   Past weeks

Flag for Greece Past Weather in Chania, Crete, Greece — Yesterday and Last 2 Weeks

Now
82 °F

Passing clouds.


Feels Like: 85 °F
Forecast: 77 / 88 °F
Wind: 16 mph from North

Location: Souda Airport

Current Time: Aug 17, 2017 at 11:15:41 am

Latest Report: Aug 17, 2017 at 10:20 am


Visibility: N/A

Pressure: 29.83 "Hg

Humidity: 62%

Dew Point: 68 °F

Location of ChaniaLocation

Past Weather in Chania — Graph

°F

Chania Temperature Yesterday

Maximum temperature yesterday: 86 °F (at 11:50 am)
Minimum temperature yesterday: 72 °F (at 2:50 am)
Average temperature yesterday: 79 °F

High & Low Weather Summary for the Past Weeks

 TemperatureHumidityPressure
High99 °F (Aug 6, 3:50 pm)100% (Aug 9, 4:50 am)29.98 "Hg (Aug 9, 4:50 am)
Low70 °F (Aug 14, 6:50 am)37% (Aug 12, 12:50 pm)29.68 "Hg (Aug 13, 5:50 am)
Average82 °F66%29.86 "Hg
* Reported Aug 2 9:20 am — Aug 17 9:50 am, Chania. Weather by CustomWeather, © 2017

Note: Actual official high and low records may vary slightly from our data, if they occured in-between our weather recording intervals... More about our weather records

Advertising

Chania Weather History for the Previous 24 Hours

Scroll right to see more
 ConditionsComfort  
Time TempWeatherWind HumidityBarometerVisibility
9:50 am
Thu, Aug 17
82 °FPassing clouds.14 mph62%29.83 "HgN/A
9:20 am82 °FPassing clouds.17 mph66%29.83 "HgN/A
8:50 am81 °FPassing clouds.14 mph70%29.83 "HgN/A
8:20 am81 °FPassing clouds.16 mph70%29.83 "HgN/A
7:50 am79 °FPassing clouds.9 mph70%29.83 "HgN/A
7:20 am77 °FPassing clouds.9 mph74%29.83 "HgN/A
6:50 am77 °FPassing clouds.8 mph74%29.83 "HgN/A
6:20 am77 °FPassing clouds.13 mph74%29.83 "HgN/A
5:50 am77 °FClear.12 mph74%29.80 "Hg10 mi
5:20 am77 °FClear.15 mph79%29.83 "Hg10 mi
4:50 am77 °FClear.14 mph79%29.83 "Hg10 mi
4:20 am77 °FClear.10 mph74%29.83 "Hg10 mi
3:50 am77 °FPassing clouds.14 mph74%29.83 "HgN/A
3:20 am77 °FPassing clouds.9 mph74%29.83 "HgN/A
2:50 am77 °FPassing clouds.10 mph74%29.83 "HgN/A
2:20 am77 °FPassing clouds.12 mph74%29.83 "HgN/A
1:50 am77 °FPassing clouds.12 mph74%29.83 "HgN/A
1:20 am77 °FPassing clouds.12 mph74%29.83 "HgN/A
12:50 am77 °FPassing clouds.9 mph74%29.83 "HgN/A
12:20 am77 °FPassing clouds.10 mph74%29.86 "HgN/A
11:50 pm
Wed, Aug 16
77 °FPassing clouds.15 mph74%29.86 "HgN/A
11:20 pm77 °FPassing clouds.10 mph69%29.86 "HgN/A
10:50 pm77 °FPassing clouds.7 mph74%29.86 "HgN/A
10:20 pm77 °FPassing clouds.8 mph74%29.86 "HgN/A
9:50 pm77 °FPassing clouds.7 mph74%29.86 "HgN/A
9:20 pm79 °FPassing clouds.9 mph74%29.86 "HgN/A
8:50 pm79 °FPassing clouds.9 mph74%29.86 "HgN/A
8:20 pm81 °FPassing clouds.12 mph66%29.86 "HgN/A
7:50 pm81 °FPassing clouds.14 mph66%29.86 "HgN/A
7:20 pm82 °FPassing clouds.16 mph62%29.86 "HgN/A
6:50 pm82 °FPassing clouds.12 mph62%29.86 "HgN/A
6:20 pm84 °FPassing clouds.14 mph58%29.86 "HgN/A
5:50 pm84 °FPassing clouds.16 mph58%29.86 "HgN/A
5:20 pm86 °FPassing clouds.17 mph55%29.86 "HgN/A
4:50 pm86 °FPassing clouds.17 mph55%29.86 "HgN/A
4:20 pm86 °FPassing clouds.16 mph55%29.86 "HgN/A
3:50 pm86 °FPassing clouds.17 mph55%29.86 "HgN/A
3:20 pm86 °FPassing clouds.18 mph59%29.86 "HgN/A
2:50 pm86 °FPassing clouds.18 mph59%29.86 "HgN/A
1:20 pm84 °FPassing clouds.18 mph62%29.89 "HgN/A
12:50 pm84 °FPassing clouds.17 mph62%29.89 "HgN/A
12:20 pm86 °FPassing clouds.15 mph62%29.89 "HgN/A
11:50 am86 °FPassing clouds.18 mph62%29.89 "HgN/A
11:20 am84 °FPassing clouds.17 mph58%29.89 "HgN/A
Weather by CustomWeather, © 2017

See weather overviewHow to use our weather pages